period_start,C,m1,H,J0,J1,J2,J3,J4,J5,JA,JB,JC,JD,JJ,JK,JN,#
2014-01-08 00:00:16,0.07,1.40,0.00,25.47,27.29,29.94,6.09,30.33,1025.91,2038.99,2951.85,2933.69,3179.92,350.87,324.70,12.22,0000 0000 0000 0000 000000
2014-01-08 00:01:16,0.14,1.40,0.00,25.46,27.28,29.94,5.84,30.17,1025.90,2038.99,2951.38,2933.30,3179.51,349.21,323.40,12.22,0000 0000 0000 0000 000000
2014-01-08 00:02:16,0.22,1.40,0.00,25.46,27.27,29.94,5.88,30.13,1025.91,2038.99,2951.13,2933.11,3179.19,350.02,324.37,12.23,0000 0000 0000 0000 000000
2014-01-08 00:03:16,0.12,1.40,0.00,25.45,27.27,29.91,5.99,30.08,1025.92,2038.99,2950.93,2933.03,3179.07,349.47,323.76,12.24,0000 0000 0000 0000 000000
2014-01-08 00:04:17,0.07,1.40,0.00,25.47,27.27,29.91,5.96,30.00,1025.91,2038.99,2950.46,2932.94,3178.99,348.73,323.12,12.24,0000 0000 0000 0000 000000
2014-01-08 00:05:17,0.10,1.40,0.00,25.48,27.27,29.96,6.00,30.04,1025.91,2038.99,2950.17,2932.72,3178.77,350.41,324.67,12.25,0000 0000 0000 0000 000000
2014-01-08 00:06:17,0.13,1.40,0.00,25.46,27.27,29.88,5.92,30.04,1025.91,2038.99,2950.06,2932.32,3178.34,350.28,324.64,12.25,0000 0000 0000 0000 000000
2014-01-08 00:07:17,0.17,1.40,0.00,25.47,27.27,29.91,5.85,30.33,1025.90,2038.99,2949.83,2932.11,3178.12,349.33,323.37,12.26,0000 0000 0000 0000 000000
2014-01-08 00:08:18,0.12,1.40,0.00,25.46,27.27,29.88,6.09,30.17,1025.90,2038.99,2949.33,2932.03,3178.04,351.37,325.50,12.27,0000 0000 0000 0000 000000
2014-01-08 00:09:18,0.10,1.40,0.00,25.44,27.27,29.92,5.88,30.17,1025.91,2038.99,2949.11,2931.99,3177.97,349.65,323.93,12.27,0000 0000 0000 0000 000000
2014-01-08 00:10:18,0.08,1.40,0.00,25.42,27.26,29.93,6.04,30.38,1025.90,2038.99,2949.00,2931.68,3177.57,351.42,325.48,12.28,0000 0000 0000 0000 000000
2014-01-08 00:11:19,0.16,1.40,0.00,25.44,27.26,29.94,6.12,30.29,1025.92,2039.00,2948.68,2931.31,3177.23,350.87,325.06,12.28,0000 0000 0000 0000 000000
2014-01-08 00:12:19,0.17,1.40,0.00,25.46,27.25,29.91,5.95,30.08,1025.92,2039.00,2948.26,2931.13,3177.09,350.03,324.52,12.29,0000 0000 0000 0000 000000
2014-01-08 00:13:19,0.13,1.41,0.00,25.44,27.25,29.91,5.97,30.38,1025.90,2039.00,2948.09,2931.05,3176.97,349.40,324.10,12.29,0000 0000 0000 0000 000000
2014-01-08 00:14:20,0.07,1.41,0.00,25.42,27.25,29.91,6.04,30.29,1025.90,2039.00,2947.79,2930.92,3176.64,349.90,324.18,12.30,0000 0000 0000 0000 000000
2014-01-08 00:15:20,0.14,1.41,0.00,25.41,27.25,29.90,5.96,30.17,1025.90,2039.01,2947.33,2930.51,3176.27,349.68,323.98,12.31,0000 0000 0000 0000 000000
2014-01-08 00:16:20,0.21,1.41,0.00,25.42,27.25,29.90,5.80,30.25,1025.90,2039.00,2947.11,2930.20,3176.09,350.24,324.49,12.31,0000 0000 0000 0000 000000
2014-01-08 00:17:21,0.13,1.41,0.00,25.43,27.25,29.89,5.88,30.17,1025.92,2039.00,2946.96,2930.07,3176.02,349.24,323.57,12.32,0000 0000 0000 0000 000000
2014-01-08 00:18:21,0.07,1.41,0.00,25.42,27.25,29.93,6.02,30.29,1025.92,2039.00,2946.57,2930.01,3175.90,350.34,324.60,12.32,0000 0000 0000 0000 000000
2014-01-08 00:19:21,0.10,1.41,0.00,25.39,27.24,29.88,5.88,30.00,1025.91,2039.00,2946.22,2929.92,3175.47,349.02,323.71,12.33,0000 0000 0000 0000 000000
2014-01-08 00:20:22,0.14,1.41,0.00,25.39,27.24,29.90,5.86,30.04,1025.91,2039.01,2946.03,2929.48,3175.18,349.46,323.81,12.34,0000 0000 0000 0000 000000
2014-01-08 00:21:22,0.19,1.41,0.00,25.38,27.23,29.92,5.79,30.08,1025.90,2039.02,2945.62,2929.17,3175.06,349.77,323.95,12.34,0000 0000 0000 0000 000000
2014-01-08 00:22:22,0.16,1.41,0.00,25.41,27.23,29.90,6.04,30.29,1025.90,2039.02,2945.24,2929.06,3174.98,351.09,325.01,12.35,0000 0000 0000 0000 000000
2014-01-08 00:23:22,0.10,1.41,0.00,25.38,27.22,29.89,5.97,30.21,1025.90,2039.04,2945.08,2929.00,3174.59,350.34,324.63,12.35,0000 0000 0000 0000 000000
2014-01-08 00:24:23,0.11,1.41,0.00,25.35,27.22,29.89,5.81,30.25,1025.90,2039.04,2944.87,2928.80,3174.22,350.34,324.67,12.36,0000 0000 0000 0000 000000
2014-01-08 00:25:23,0.14,1.41,0.00,25.35,27.22,29.94,6.01,30.21,1025.90,2039.02,2944.39,2928.41,3174.08,349.83,324.20,12.36,0000 0000 0000 0000 000000
2014-01-08 00:26:23,0.16,1.42,0.00,25.35,27.22,29.94,6.02,30.04,1025.90,2039.01,2944.14,2928.16,3174.00,349.70,324.33,12.37,0000 0000 0000 0000 000000
2014-01-08 00:27:24,0.10,1.42,0.00,25.35,27.22,29.91,6.06,30.25,1025.90,2039.01,2944.00,2928.05,3173.67,350.74,325.03,12.38,0000 0000 0000 0000 000000
2014-01-08 00:28:24,0.12,1.42,0.00,25.37,27.22,29.93,5.94,30.04,1025.90,2039.01,2943.53,2927.99,3173.27,349.81,324.16,12.38,0000 0000 0000 0000 000000
2014-01-08 00:29:24,0.16,1.42,0.00,25.36,27.22,29.93,6.02,30.00,1025.91,2039.01,2943.20,2927.60,3173.10,350.78,324.72,12.39,0000 0000 0000 0000 000000
2014-01-08 00:30:24,0.16,1.42,0.00,25.36,27.21,29.91,5.96,30.04,1025.91,2039.05,2943.06,2927.24,3172.99,350.70,325.16,12.39,0000 0000 0000 0000 000000
2014-01-08 00:31:25,0.14,1.42,0.00,25.37,27.20,29.89,6.04,30.38,1025.91,2039.05,2942.77,2927.09,3172.79,350.10,324.42,12.40,0000 0000 0000 0000 000000
2014-01-08 00:32:25,0.14,1.42,0.00,25.37,27.20,29.88,5.95,30.21,1025.92,2039.04,2942.31,2927.02,3172.34,349.25,323.64,12.41,0000 0000 0000 0000 000000
2014-01-08 00:33:25,0.13,1.42,0.00,25.37,27.20,29.87,5.94,30.00,1025.91,2039.04,2942.11,2926.86,3172.12,350.16,324.67,12.41,0000 0000 0000 0000 000000
2014-01-08 00:34:25,0.11,1.42,0.00,25.37,27.20,29.91,6.11,30.13,1025.91,2039.03,2941.97,2926.45,3172.04,350.49,324.88,12.42,0000 0000 0000 0000 000000
2014-01-08 00:35:26,0.15,1.42,0.00,25.35,27.20,29.91,6.00,30.08,1025.90,2039.07,2941.54,2926.19,3171.93,350.50,324.82,12.42,0000 0000 0000 0000 000000
2014-01-08 00:36:26,0.17,1.42,0.00,25.33,27.20,29.92,5.99,30.29,1025.92,2039.08,2941.20,2926.07,3171.49,349.63,324.19,12.43,0000 0000 0000 0000 000000
2014-01-08 00:37:26,0.14,1.42,0.00,25.34,27.20,29.93,6.12,30.38,1025.92,2039.11,2941.03,2926.02,3171.19,351.25,325.54,12.44,0000 0000 0000 0000 000000
2014-01-08 00:38:26,0.12,1.43,0.00,25.32,27.20,29.89,6.02,30.29,1025.92,2039.09,2940.59,2925.62,3171.06,349.94,324.32,12.44,0000 0000 0000 0000 000000
2014-01-08 00:39:27,0.16,1.43,0.00,25.32,27.19,29.91,5.91,30.13,1025.91,2039.09,2940.23,2925.24,3170.98,349.73,324.55,12.45,0000 0000 0000 0000 000000
2014-01-08 00:40:27,0.17,1.43,0.00,25.31,27.19,29.88,6.10,30.13,1025.90,2039.07,2940.08,2925.09,3170.65,350.48,325.18,12.45,0000 0000 0000 0000 000000
2014-01-08 00:41:27,0.10,1.43,0.00,25.29,27.18,29.90,6.03,30.17,1025.93,2039.11,2939.96,2925.03,3170.25,349.25,323.34,12.46,0000 0000 0000 0000 000000
2014-01-08 00:42:27,0.11,1.43,0.00,25.30,27.17,29.91,6.03,30.13,1025.91,2039.19,2939.60,2925.01,3170.09,350.29,324.85,12.46,0000 0000 0000 0000 000000
2014-01-08 00:43:28,0.17,1.43,0.00,25.32,27.17,29.91,6.02,30.00,1025.91,2039.31,2939.24,2924.95,3170.03,350.44,324.80,12.47,0000 0000 0000 0000 000000
2014-01-08 00:44:28,0.21,1.43,0.00,25.32,27.17,29.93,6.08,30.00,1025.90,2039.41,2939.06,2924.55,3169.95,350.74,325.06,12.48,0000 0000 0000 0000 000000
2014-01-08 00:45:28,0.19,1.43,0.00,25.32,27.17,29.88,5.84,29.88,1025.93,2039.39,2938.79,2924.20,3169.57,348.23,323.11,12.48,0000 0000 0000 0000 000000
2014-01-08 00:46:29,0.16,1.43,0.00,25.34,27.17,29.84,5.94,29.88,1025.91,2039.45,2938.38,2924.07,3169.23,350.08,324.44,12.49,0000 0000 0000 0000 000000
2014-01-08 00:47:29,0.18,1.43,0.00,25.33,27.17,29.85,6.16,30.00,1025.91,2039.56,2938.14,2924.01,3169.10,351.28,325.33,12.49,0000 0000 0000 0000 000000
2014-01-08 00:48:29,0.15,1.44,0.00,25.33,27.17,29.87,5.93,29.71,1025.90,2039.65,2938.01,2923.97,3169.03,349.94,324.88,12.50,0000 0000 0000 0000 000000
2014-01-08 00:49:30,0.12,1.44,0.00,25.31,27.17,29.89,5.85,29.92,1025.91,2039.71,2937.62,2923.68,3168.97,349.51,324.01,12.51,0000 0000 0000 0000 000000
2014-01-08 00:50:30,0.19,1.44,0.00,25.32,27.16,29.87,5.69,29.96,1025.90,2039.75,2937.24,2923.33,3168.72,348.76,323.64,12.51,0000 0000 0000 0000 000000
2014-01-08 00:51:30,0.23,1.44,0.00,25.33,27.15,29.83,6.01,29.96,1025.91,2039.83,2937.08,2923.12,3168.32,350.31,324.66,12.52,0000 0000 0000 0000 000000
2014-01-08 00:52:31,0.17,1.44,0.00,25.33,27.15,29.84,5.92,29.92,1025.91,2039.81,2936.91,2923.04,3168.11,349.83,324.01,12.52,0000 0000 0000 0000 000000
2014-01-08 00:53:31,0.10,1.44,0.00,25.32,27.15,29.84,5.96,29.92,1025.90,2039.83,2936.49,2922.98,3168.04,349.89,324.28,12.53,0000 0000 0000 0000 000000
2014-01-08 00:54:31,0.07,1.44,0.00,25.33,27.15,29.84,6.00,29.96,1025.91,2039.79,2936.19,2922.74,3167.93,350.26,325.04,12.53,0000 0000 0000 0000 000000
2014-01-08 00:55:32,0.11,1.44,0.00,25.33,27.15,29.80,5.97,29.83,1025.90,2039.81,2936.06,2922.32,3167.51,349.96,324.33,12.54,0000 0000 0000 0000 000000
2014-01-08 00:56:32,0.18,1.44,0.00,25.35,27.15,29.82,6.05,30.13,1025.90,2039.83,2935.78,2922.12,3167.19,350.11,324.46,12.55,0000 0000 0000 0000 000000
2014-01-08 00:57:32,0.14,1.44,0.00,25.35,27.15,29.84,6.03,30.08,1025.90,2039.81,2935.32,2922.03,3167.07,350.40,324.82,12.55,0000 0000 0000 0000 000000
2014-01-08 00:58:32,0.10,1.44,0.00,25.34,27.15,29.84,5.96,29.92,1025.90,2039.83,2935.11,2921.98,3167.01,350.80,325.39,12.56,0000 0000 0000 0000 000000
2014-01-08 00:59:33,0.09,1.44,0.00,25.34,27.15,29.83,6.05,30.00,1025.90,2039.86,2934.99,2921.58,3166.65,350.01,324.36,12.56,0000 0000 0000 0000 000000
2014-01-08 01:00:33,0.18,1.45,0.00,25.34,27.15,29.84,5.95,30.17,1025.90,2039.87,2934.55,2921.27,3166.27,349.11,323.53,12.57,0000 0000 0000 0000 000000
2014-01-08 01:01:33,0.20,1.45,0.00,25.35,27.14,29.83,6.01,29.96,1025.90,2039.89,2934.20,2921.10,3166.10,350.65,324.95,12.58,0000 0000 0000 0000 000000
2014-01-08 01:02:33,0.10,1.45,0.00,25.36,27.13,29.82,5.93,29.92,1025.90,2039.87,2934.07,2921.04,3166.03,349.95,324.30,12.58,0000 0000 0000 0000 000000
2014-01-08 01:03:34,0.05,1.45,0.00,25.36,27.13,29.84,5.87,30.08,1025.90,2039.91,2933.97,2921.00,3165.99,349.17,323.50,12.59,0000 0000 0000 0000 000000
2014-01-08 01:04:34,0.09,1.45,0.00,25.34,27.12,29.85,5.95,30.13,1025.90,2039.92,2933.49,2920.73,3165.62,349.57,323.95,12.59,0000 0000 0000 0000 000000
2014-01-08 01:05:34,0.21,1.45,0.00,25.35,27.12,29.82,5.97,30.21,1025.89,2039.89,2933.18,2920.28,3165.25,350.36,324.39,12.60,0000 0000 0000 0000 000000
2014-01-08 01:06:34,0.17,1.45,0.00,25.34,27.12,29.85,5.82,30.13,1025.89,2039.91,2933.04,2920.10,3165.08,348.55,323.21,12.61,0000 0000 0000 0000 000000
2014-01-08 01:07:35,0.10,1.45,0.00,25.35,27.12,29.84,5.93,29.92,1025.89,2039.95,2932.72,2920.03,3165.02,350.36,324.69,12.61,0000 0000 0000 0000 000000
2014-01-08 01:08:35,0.09,1.45,0.00,25.33,27.12,29.85,6.09,30.17,1025.87,2039.96,2932.29,2919.98,3164.80,350.03,324.39,12.62,0000 0000 0000 0000 000000
2014-01-08 01:09:35,0.14,1.45,0.00,25.32,27.12,29.82,6.09,30.17,1025.85,2039.97,2932.10,2919.67,3164.35,350.55,324.87,12.62,0000 0000 0000 0000 000000
2014-01-08 01:10:36,0.18,1.45,0.00,25.35,27.12,29.85,6.02,30.25,1025.88,2039.90,2931.89,2919.28,3164.13,350.38,324.67,12.63,0000 0000 0000 0000 000000
2014-01-08 01:11:36,0.12,1.45,0.00,25.36,27.12,29.84,5.94,30.00,1025.88,2039.89,2931.43,2919.11,3164.04,349.58,323.95,12.63,0000 0000 0000 0000 000000
2014-01-08 01:12:36,0.12,1.46,0.00,25.32,27.12,29.84,5.92,30.21,1025.86,2039.94,2931.16,2919.04,3163.98,350.24,324.44,12.64,0000 0000 0000 0000 000000
2014-01-08 01:13:37,0.08,1.46,0.00,25.30,27.12,29.78,5.78,30.17,1025.84,2039.96,2931.05,2919.01,3163.79,349.33,323.63,12.65,0000 0000 0000 0000 000000
2014-01-08 01:14:37,0.08,1.46,0.00,25.31,27.11,29.79,6.03,30.08,1025.85,2039.97,2930.86,2918.80,3163.37,349.65,324.32,12.65,0000 0000 0000 0000 000000
2014-01-08 01:15:37,0.16,1.46,0.00,25.29,27.11,29.79,5.88,30.04,1025.85,2039.98,2930.46,2918.42,3163.13,349.11,324.11,12.66,0000 0000 0000 0000 000000
2014-01-08 01:16:37,0.17,1.46,0.00,25.30,27.11,29.81,6.01,30.25,1025.85,2039.97,2930.17,2918.18,3163.04,349.93,324.27,12.66,0000 0000 0000 0000 000000
2014-01-08 01:17:38,0.11,1.46,0.00,25.31,27.10,29.80,6.07,30.21,1025.85,2039.96,2930.02,2918.06,3162.97,350.44,324.79,12.67,0000 0000 0000 0000 000000
2014-01-08 01:18:38,0.06,1.46,0.00,25.31,27.10,29.81,5.98,30.13,1025.84,2039.96,2929.72,2918.00,3162.61,349.83,324.58,12.68,0000 0000 0000 0000 000000
2014-01-08 01:19:38,0.11,1.46,0.00,25.31,27.10,29.79,5.82,30.04,1025.89,2039.95,2929.28,2917.91,3162.23,349.53,323.96,12.68,0000 0000 0000 0000 000000
2014-01-08 01:20:39,0.14,1.46,0.00,25.31,27.10,29.80,6.00,30.17,1025.89,2039.98,2929.10,2917.58,3162.09,350.46,324.82,12.69,0000 0000 0000 0000 000000
2014-01-08 01:21:39,0.15,1.46,0.00,25.31,27.10,29.82,5.92,30.25,1025.89,2039.96,2929.00,2917.23,3162.03,349.95,324.34,12.69,0000 0000 0000 0000 000000
2014-01-08 01:22:39,0.10,1.46,0.00,25.32,27.10,29.83,5.83,30.33,1025.88,2039.97,2928.63,2917.08,3161.91,349.33,323.78,12.70,0000 0000 0000 0000 000000
2014-01-08 01:23:40,0.11,1.46,0.00,25.30,27.10,29.83,5.91,30.08,1025.88,2039.97,2928.25,2917.03,3161.49,349.72,323.60,12.70,0000 0000 0000 0000 000000
2014-01-08 01:24:40,0.13,1.46,0.00,25.30,27.10,29.80,6.01,29.92,1025.84,2039.99,2928.09,2916.92,3161.19,350.38,324.96,12.71,0000 0000 0000 0000 000000
2014-01-08 01:25:40,0.12,1.47,0.00,25.28,27.10,29.83,6.06,30.21,1025.83,2039.98,2927.95,2916.52,3161.07,350.21,324.60,12.72,0000 0000 0000 0000 000000
2014-01-08 01:26:40,0.13,1.47,0.00,25.30,27.09,29.82,6.03,30.17,1025.88,2039.98,2927.52,2916.20,3160.99,350.49,324.85,12.72,0000 0000 0000 0000 000000
2014-01-08 01:27:41,0.15,1.47,0.00,25.30,27.09,29.81,6.09,30.17,1025.88,2039.98,2927.19,2916.07,3160.65,350.99,325.20,12.73,0000 0000 0000 0000 000000
2014-01-08 01:28:41,0.13,1.47,0.00,25.31,27.08,29.80,5.98,30.17,1025.85,2039.98,2927.05,2916.02,3160.27,350.00,324.38,12.73,0000 0000 0000 0000 000000
2014-01-08 01:29:41,0.08,1.47,0.00,25.32,27.08,29.77,5.92,30.04,1025.83,2039.95,2926.73,2915.93,3160.10,349.99,324.36,12.74,0000 0000 0000 0000 000000
2014-01-08 01:30:42,0.09,1.47,0.00,25.30,27.07,29.76,5.88,30.13,1025.87,2039.96,2926.28,2915.48,3160.03,350.04,324.42,12.75,0000 0000 0000 0000 000000
2014-01-08 01:31:42,0.17,1.47,0.00,25.28,27.07,29.72,5.89,30.13,1025.89,2039.98,2926.10,2915.18,3159.84,349.43,323.70,12.75,0000 0000 0000 0000 000000
2014-01-08 01:32:42,0.16,1.47,0.00,25.28,27.07,29.75,5.93,30.13,1025.89,2039.99,2925.81,2915.07,3159.43,350.05,324.69,12.76,0000 0000 0000 0000 000000
2014-01-08 01:33:42,0.14,1.47,0.00,25.29,27.07,29.72,6.05,30.17,1025.89,2039.99,2925.34,2915.01,3159.17,349.86,324.28,12.76,0000 0000 0000 0000 000000
2014-01-08 01:34:43,0.11,1.47,0.00,25.31,27.07,29.72,6.03,30.25,1025.89,2039.99,2925.12,2914.76,3159.05,348.90,323.71,12.77,0000 0000 0000 0000 000000
2014-01-08 01:35:43,0.12,1.47,0.00,25.32,27.07,29.74,6.01,30.17,1025.87,2039.98,2925.01,2914.33,3158.94,350.53,324.87,12.78,0000 0000 0000 0000 000000
2014-01-08 01:36:43,0.13,1.47,0.00,25.30,27.07,29.78,6.04,30.38,1025.87,2039.99,2924.57,2914.12,3158.58,349.91,324.15,12.78,0000 0000 0000 0000 000000
2014-01-08 01:37:44,0.19,1.48,0.00,25.29,27.07,29.79,5.98,30.33,1025.83,2039.99,2924.21,2914.03,3158.22,350.09,324.47,12.79,0000 0000 0000 0000 000000
2014-01-08 01:38:44,0.11,1.48,0.00,25.28,27.07,29.76,5.97,30.38,1025.84,2039.99,2924.06,2913.88,3158.07,349.71,324.14,12.79,0000 0000 0000 0000 000000
2014-01-08 01:39:44,0.10,1.48,0.00,25.27,27.07,29.78,5.88,30.42,1025.84,2039.98,2923.67,2913.45,3157.94,349.52,323.83,12.80,0000 0000 0000 0000 000000
2014-01-08 01:40:44,0.20,1.48,0.00,25.28,27.07,29.78,6.01,30.21,1025.85,2039.99,2923.25,2913.19,3157.62,350.30,324.95,12.80,0000 0000 0000 0000 000000
2014-01-08 01:41:44,0.17,1.48,0.00,25.29,27.07,29.75,6.05,30.25,1025.81,2039.99,2923.09,2913.07,3157.26,350.70,325.20,12.81,0000 0000 0000 0000 000000
2014-01-08 01:42:44,0.09,1.48,0.00,25.28,27.06,29.74,5.99,30.17,1025.83,2039.99,2922.87,2913.03,3157.09,349.81,324.23,12.82,0000 0000 0000 0000 000000
2014-01-08 01:43:45,0.08,1.48,0.00,25.28,27.06,29.79,6.14,30.33,1025.81,2039.99,2922.39,2912.93,3157.03,350.97,325.11,12.82,0000 0000 0000 0000 000000
2014-01-08 01:44:45,0.10,1.48,0.00,25.27,27.05,29.77,5.80,30.08,1025.86,2039.99,2922.14,2912.67,3156.88,348.95,323.21,12.83,0000 0000 0000 0000 000000
2014-01-08 01:45:45,0.16,1.48,0.00,25.27,27.05,29.76,5.92,30.13,1025.89,2039.99,2921.99,2912.27,3156.41,349.37,323.61,12.83,0000 0000 0000 0000 000000
2014-01-08 01:46:45,0.17,1.48,0.00,25.28,27.05,29.75,5.98,30.33,1025.87,2039.99,2921.59,2912.10,3156.15,350.47,324.70,12.84,0000 0000 0000 0000 000000
2014-01-08 01:47:46,0.14,1.48,0.00,25.27,27.05,29.76,6.10,30.08,1025.86,2039.99,2921.22,2912.03,3156.05,351.72,325.98,12.85,0000 0000 0000 0000 000000
2014-01-08 01:48:46,0.07,1.48,0.00,25.25,27.05,29.74,5.85,30.29,1025.88,2039.99,2921.08,2911.98,3156.00,349.35,323.75,12.85,0000 0000 0000 0000 000000
2014-01-08 01:49:46,0.03,1.48,0.00,25.26,27.05,29.71,5.94,30.21,1025.87,2039.99,2920.90,2911.71,3155.83,350.32,324.82,12.86,0000 0000 0000 0000 000000
2014-01-08 01:50:47,0.18,1.48,0.00,25.25,27.05,29.71,5.80,30.04,1025.88,2039.99,2920.42,2911.29,3155.35,349.25,323.98,12.86,0000 0000 0000 0000 000000
2014-01-08 01:51:47,0.22,1.49,0.00,25.28,27.05,29.75,5.90,30.00,1025.87,2039.99,2920.15,2911.10,3155.13,349.36,324.11,12.87,0000 0000 0000 0000 000000
2014-01-08 01:52:47,0.10,1.49,0.00,25.25,27.05,29.72,5.86,29.83,1025.88,2039.99,2920.03,2911.04,3155.04,349.32,324.12,12.87,0000 0000 0000 0000 000000
2014-01-08 01:53:47,0.05,1.49,0.00,25.27,27.05,29.65,5.97,30.04,1025.87,2039.99,2919.75,2910.97,3154.97,349.26,323.84,12.88,0000 0000 0000 0000 000000
2014-01-08 01:54:47,0.09,1.49,0.00,25.25,27.05,29.72,6.02,29.88,1025.85,2039.99,2919.32,2910.52,3154.53,350.48,324.89,12.89,0000 0000 0000 0000 000000
2014-01-08 01:55:48,0.25,1.49,0.00,25.25,27.04,29.72,5.88,30.25,1025.86,2039.99,2919.11,2910.20,3154.20,348.69,323.23,12.89,0000 0000 0000 0000 000000
2014-01-08 01:56:48,0.15,1.49,0.00,25.26,27.03,29.70,6.03,30.17,1025.84,2039.99,2918.89,2910.07,3154.05,351.08,325.43,12.90,0000 0000 0000 0000 000000
2014-01-08 01:57:48,0.09,1.49,0.00,25.28,27.03,29.68,6.13,30.42,1025.77,2039.99,2918.41,2909.99,3153.90,350.04,324.43,12.90,0000 0000 0000 0000 000000
2014-01-08 01:58:48,0.12,1.49,0.00,25.28,27.02,29.66,6.03,30.25,1025.80,2039.99,2918.15,2909.82,3153.47,348.96,323.43,12.91,0000 0000 0000 0000 000000
2014-01-08 01:59:49,0.15,1.49,0.00,25.27,27.02,29.68,5.95,29.96,1025.83,2039.99,2918.02,2909.41,3153.19,350.20,324.60,12.92,0000 0000 0000 0000 000000
2014-01-08 02:00:49,0.16,1.49,0.00,25.25,27.02,29.68,6.02,30.33,1025.80,2039.99,2917.66,2909.15,3153.06,349.87,324.48,12.92,0000 0000 0000 0000 000000
2014-01-08 02:01:49,0.14,1.49,0.00,25.25,27.02,29.70,5.98,30.17,1025.84,2039.99,2917.25,2909.05,3152.96,350.27,324.24,12.93,0000 0000 0000 0000 000000
2014-01-08 02:02:49,0.10,1.49,0.00,25.24,27.02,29.71,5.91,30.17,1025.83,2039.99,2917.09,2908.99,3152.58,349.79,324.06,12.93,0000 0000 0000 0000 000000
2014-01-08 02:03:50,0.09,1.49,0.00,25.22,27.02,29.72,6.00,30.21,1025.82,2039.99,2916.91,2908.66,3152.24,350.18,324.90,12.94,0000 0000 0000 0000 000000
2014-01-08 02:04:50,0.18,1.50,0.00,25.22,27.02,29.76,5.73,29.92,1025.84,2039.99,2916.42,2908.31,3152.09,348.38,322.95,12.95,0000 0000 0000 0000 000000
2014-01-08 02:05:50,0.18,1.50,0.00,25.25,27.02,29.75,5.94,30.21,1025.83,2039.99,2916.15,2908.11,3152.03,349.89,324.08,12.95,0000 0000 0000 0000 000000
2014-01-08 02:06:50,0.09,1.50,0.00,25.25,27.02,29.72,6.03,30.21,1025.84,2039.99,2915.97,2908.03,3151.82,350.52,324.92,12.96,0000 0000 0000 0000 000000
2014-01-08 02:07:51,0.08,1.50,0.00,25.25,27.02,29.69,5.81,30.08,1025.74,2039.99,2915.51,2907.93,3151.37,348.43,322.96,12.96,0000 0000 0000 0000 000000
2014-01-08 02:08:51,0.16,1.50,0.00,25.25,27.02,29.70,5.94,29.96,1025.73,2039.99,2915.19,2907.50,3151.13,349.98,324.39,12.97,0000 0000 0000 0000 000000
2014-01-08 02:09:51,0.20,1.50,0.00,25.22,27.02,29.73,6.11,30.13,1025.77,2039.99,2915.01,2907.20,3151.05,350.93,325.30,12.97,0000 0000 0000 0000 000000
2014-01-08 02:10:51,0.11,1.50,0.00,25.18,27.01,29.69,6.02,30.00,1025.81,2039.99,2914.58,2907.07,3150.98,349.63,324.28,12.98,0000 0000 0000 0000 000000
2014-01-08 02:11:52,0.11,1.50,0.00,25.19,27.00,29.66,6.02,30.13,1025.85,2039.99,2914.21,2907.00,3150.72,349.32,323.90,12.99,0000 0000 0000 0000 000000
2014-01-08 02:12:52,0.12,1.50,0.00,25.22,27.00,29.67,5.96,30.04,1025.78,2040.00,2914.06,2906.86,3150.28,350.45,324.72,12.99,0000 0000 0000 0000 000000
2014-01-08 02:13:52,0.12,1.50,0.00,25.23,27.00,29.67,6.03,30.00,1025.71,2040.00,2913.82,2906.44,3150.11,350.53,324.85,13.00,0000 0000 0000 0000 000000
2014-01-08 02:14:52,0.19,1.50,0.00,25.23,27.00,29.69,5.94,29.92,1025.66,2040.00,2913.34,2906.16,3150.03,350.39,324.76,13.00,0000 0000 0000 0000 000000
2014-01-08 02:15:53,0.14,1.51,0.00,25.24,27.00,29.69,5.83,29.96,1025.61,2040.01,2913.13,2906.05,3149.91,350.09,324.47,13.01,0000 0000 0000 0000 000000
2014-01-08 02:16:53,0.09,1.51,0.00,25.22,27.00,29.68,6.05,30.00,1025.61,2040.00,2912.98,2906.00,3149.47,350.65,325.00,13.02,0000 0000 0000 0000 000000
2014-01-08 02:17:53,0.09,1.51,0.00,25.22,27.00,29.70,5.94,30.04,1025.57,2040.00,2912.54,2905.85,3149.17,349.52,323.94,13.02,0000 0000 0000 0000 000000
2014-01-08 02:18:53,0.16,1.51,0.00,25.22,27.00,29.71,6.03,30.13,1025.53,2040.00,2912.21,2905.42,3149.05,350.28,324.63,13.03,0000 0000 0000 0000 000000
2014-01-08 02:19:54,0.19,1.51,0.00,25.23,27.00,29.69,6.03,30.13,1025.48,2040.00,2912.07,2905.15,3148.99,350.54,324.85,13.03,0000 0000 0000 0000 000000
2014-01-08 02:20:54,0.07,1.51,0.00,25.21,27.00,29.71,5.93,30.04,1025.48,2040.00,2911.76,2905.05,3148.67,350.30,324.62,13.04,0000 0000 0000 0000 000000
2014-01-08 02:21:54,0.14,1.51,0.00,25.20,27.00,29.70,6.11,30.13,1025.46,2040.00,2911.33,2905.00,3148.29,350.69,324.77,13.04,0000 0000 0000 0000 000000
2014-01-08 02:22:54,0.12,1.51,0.00,25.19,26.99,29.72,5.85,30.08,1025.46,2040.00,2911.12,2904.88,3148.11,348.77,323.69,13.05,0000 0000 0000 0000 000000
2014-01-08 02:23:54,0.09,1.51,0.00,25.19,26.98,29.72,5.80,30.08,1025.45,2040.00,2911.02,2904.52,3148.04,349.99,324.38,13.06,0000 0000 0000 0000 000000
2014-01-08 02:24:55,0.13,1.51,0.00,25.19,26.98,29.73,5.80,29.96,1025.42,2040.00,2910.65,2904.20,3147.95,349.29,323.72,13.06,0000 0000 0000 0000 000000
2014-01-08 02:25:55,0.16,1.51,0.00,25.19,26.97,29.73,5.80,30.00,1025.43,2040.01,2910.24,2904.07,3147.60,349.94,324.33,13.07,0000 0000 0000 0000 000000
2014-01-08 02:26:55,0.15,1.51,0.00,25.19,26.97,29.72,5.92,29.79,1025.41,2040.00,2910.09,2904.02,3147.27,349.62,324.30,13.07,0000 0000 0000 0000 000000
2014-01-08 02:27:55,0.06,1.51,0.00,25.19,26.97,29.72,5.83,30.13,1025.43,2040.01,2909.85,2903.87,3147.10,350.39,324.74,13.08,0000 0000 0000 0000 000000
2014-01-08 02:28:56,0.13,1.51,0.00,25.22,26.97,29.69,6.08,30.13,1025.43,2040.00,2909.46,2903.52,3147.02,350.50,324.50,13.09,0000 0000 0000 0000 000000
2014-01-08 02:29:56,0.16,1.52,0.00,25.22,26.97,29.71,6.03,30.13,1025.42,2040.01,2909.19,2903.22,3146.92,350.46,325.20,13.09,0000 0000 0000 0000 000000
2014-01-08 02:30:56,0.13,1.52,0.00,25.21,26.97,29.70,5.85,30.08,1025.42,2040.03,2909.06,2903.09,3146.47,350.04,324.66,13.10,0000 0000 0000 0000 000000
2014-01-08 02:31:56,0.13,1.52,0.00,25.21,26.97,29.65,6.05,30.13,1025.41,2040.03,2908.83,2903.03,3146.18,350.08,324.71,13.10,0000 0000 0000 0000 000000
2014-01-08 02:32:56,0.09,1.52,0.00,25.21,26.97,29.69,5.98,30.25,1025.41,2040.04,2908.38,2902.98,3146.06,349.42,324.47,13.11,0000 0000 0000 0000 000000
2014-01-08 02:33:56,0.08,1.52,0.00,25.20,26.97,29.70,5.92,30.13,1025.41,2040.03,2908.14,2902.65,3145.98,350.13,324.75,13.12,0000 0000 0000 0000 000000
2014-01-08 02:34:57,0.16,1.52,0.00,25.21,26.97,29.67,5.94,29.92,1025.41,2040.03,2908.05,2902.30,3145.73,349.19,323.76,13.12,0000 0000 0000 0000 000000
2014-01-08 02:35:57,0.13,1.52,0.00,25.18,26.97,29.66,5.87,29.88,1025.41,2040.03,2907.84,2902.11,3145.43,349.46,323.90,13.13,0000 0000 0000 0000 000000